This is the latest recevied weather packets stored in our database for station/object KB2UHF-8. If no packets are shown the sender has not sent any weather packets the latest 10 day(s).
| Time | Temp. | Humidity | Pressure | Rain* | Wind** | Luminosity | Snow |
|---|---|---|---|---|---|---|---|
| 1777424715 | 12.22° C | 54% | 1014 hPa | 0 mm | - | 0 W/m² | - |
| 1777422315 | 12.78° C | 52% | 1013.4 hPa | 0 mm | - | 39 W/m² | - |
| 1777421715 | 13.33° C | 51% | 1013.2 hPa | 0 mm | - | 52 W/m² | - |
| 1777419335 | 13.89° C | 52% | 1013.4 hPa | 0 mm | - | 107 W/m² | - |
| 1777418115 | 13.89° C | 50% | 1013 hPa | 0 mm | - | 146 W/m² | - |
| 1777416317 | 13.89° C | 48% | 1012.4 hPa | 0 mm | - | 168 W/m² | - |
| 1777412117 | 15.56° C | 49% | 1013 hPa | 0 mm | - | 424 W/m² | - |
| 1777407337 | 15° C | 48% | 1013.6 hPa | 0 mm | - | 767 W/m² | - |
| 1777406117 | 15.56° C | 51% | 1014 hPa | 0 mm | - | 809 W/m² | - |
| 1777405537 | 15° C | 45% | 1014.4 hPa | 0 mm | - | 873 W/m² | - |
| 1777402517 | 13.89° C | 47% | 1014.2 hPa | 0 mm | - | 492 W/m² | - |
| 1777399517 | 12.22° C | 50% | 1013.7 hPa | 0 mm | - | 469 W/m² | - |
| 1777398317 | 12.22° C | 53% | 1014 hPa | 0 mm | - | 510 W/m² | - |
| 1777395917 | 12.78° C | 57% | 1013.4 hPa | 0 mm | - | 948 W/m² | - |
| 1777393537 | 12.22° C | 60% | 1013.5 hPa | 0 mm | - | 857 W/m² | - |
| 1777389318 | 10° C | 70% | 1013.2 hPa | 0 mm | - | 656 W/m² | - |
| 1777386918 | 8.33° C | 77% | 1012.8 hPa | 0 mm | - | 538 W/m² | - |
| 1777379716 | 6.67° C | 83% | 1010.7 hPa | 0 mm | - | 68 W/m² | - |
| 1777364716 | 7.78° C | 87% | 1006.2 hPa | 0 mm | - | 0 W/m² | - |
| 1777357516 | 8.89° C | 90% | 1004.9 hPa | 0 mm | - | 0 W/m² | - |
| 1777355736 | 8.89° C | 91% | 1004.2 hPa | 0 mm | - | 0 W/m² | - |
| 1777354516 | 8.89° C | 91% | 1004 hPa | 0 mm | - | 0 W/m² | - |
| 1777347918 | 11.67° C | 91% | 1001.8 hPa | 0 mm | - | 0 W/m² | - |
| 1777346717 | 12.22° C | 90% | 1001.6 hPa | 0 mm | - | 0 W/m² | - |
| 1777344916 | 13.33° C | 89% | 1001.3 hPa | 0 mm | - | 0 W/m² | - |
* Rain latest hour (hover to see other rain measurements)
** Current wind speed in m/s (hover to see current wind gust speed)